TimeCST,TemperatureF,Dew PointF,Humidity,Sea Level PressureIn,VisibilityMPH,Wind Direction,Wind SpeedMPH,Gust SpeedMPH,PrecipitationIn,Events,Conditions,WindDirDegrees,DateUTC
12:53 AM,26.1,17.1,69,30.35,10.0,NNW,12.7,-,N/A,,Clear,330,2013-02-01 06:53:00
1:53 AM,24.1,14.0,65,30.38,10.0,NNW,10.4,-,N/A,,Clear,340,2013-02-01 07:53:00
2:53 AM,23.0,12.0,63,30.39,10.0,NNW,13.8,-,0.01,,Clear,340,2013-02-01 08:53:00
3:53 AM,21.9,10.0,60,30.41,10.0,North,12.7,-,N/A,,Clear,350,2013-02-01 09:53:00
4:53 AM,19.9,10.9,68,30.44,10.0,North,5.8,-,N/A,,Clear,360,2013-02-01 10:53:00
5:53 AM,19.0,10.9,71,30.48,10.0,North,9.2,-,N/A,,Clear,360,2013-02-01 11:53:00
6:53 AM,18.0,10.0,71,30.49,10.0,North,6.9,-,N/A,,Clear,360,2013-02-01 12:53:00
7:53 AM,19.9,10.9,68,30.52,10.0,North,5.8,-,N/A,,Clear,10,2013-02-01 13:53:00
8:53 AM,21.0,10.9,65,30.55,10.0,North,4.6,-,N/A,,Clear,360,2013-02-01 14:53:00
9:53 AM,21.9,10.9,63,30.55,10.0,North,5.8,-,N/A,,Clear,350,2013-02-01 15:53:00
10:53 AM,25.0,12.0,58,30.56,10.0,Calm,Calm,-,N/A,,Clear,0,2013-02-01 16:53:00
12:53 PM,27.0,14.0,58,30.51,10.0,Variable,3.5,-,N/A,,Clear,0,2013-02-01 18:53:00
1:53 PM,28.9,12.9,51,30.48,10.0,Calm,Calm,-,N/A,,Clear,0,2013-02-01 19:53:00
2:53 PM,30.0,14.0,51,30.45,10.0,Calm,Calm,-,N/A,,Clear,0,2013-02-01 20:53:00
3:53 PM,32.0,14.0,48,30.44,10.0,Calm,Calm,-,N/A,,Clear,0,2013-02-01 21:53:00
4:53 PM,30.9,12.9,47,30.43,10.0,Calm,Calm,-,N/A,,Clear,0,2013-02-01 22:53:00
5:53 PM,30.0,16.0,56,30.42,10.0,Calm,Calm,-,N/A,,Clear,0,2013-02-01 23:53:00
6:53 PM,27.0,19.9,75,30.40,10.0,Calm,Calm,-,N/A,,Clear,0,2013-02-02 00:53:00
7:53 PM,28.0,15.1,58,30.41,10.0,Calm,Calm,-,N/A,,Clear,0,2013-02-02 01:53:00
8:53 PM,27.0,15.1,61,30.38,10.0,Calm,Calm,-,N/A,,Clear,0,2013-02-02 02:53:00
9:53 PM,27.0,14.0,58,30.37,10.0,Calm,Calm,-,N/A,,Clear,0,2013-02-02 03:53:00
10:53 PM,27.0,16.0,63,30.35,10.0,Calm,Calm,-,N/A,,Clear,0,2013-02-02 04:53:00
11:53 PM,24.1,16.0,71,30.34,10.0,Calm,Calm,-,N/A,,Clear,0,2013-02-02 05:53:00